Theta_e
341 340 342 349 352 356 359 360 366 365 367 357 348 353 356 357 361 361 362 361 361 357 352 354 354 356 358 360 360 361 362 365 365 361 358 358 352 352 354 353 353 352 353 353 354 354 354 354 354 354 353 353 353 352 352 351 351 352 351 350 350 350 349 349 349 349 349 349 348 348 347 346 346 347 348 348 349 350 351 351 351 351 350 347 345 345 347 349 350 351 352 351 350 350 350 349 348
341 343 345 352 353 359 363 362 366 362 360 351 348 356 355 357 361 359 360 357 356 352 351 353 355 357 356 357 357 361 361 358 359 359 357 354 353 354 353 353 353 352 353 353 354 354 353 354 354 354 353 354 353 350 351 351 352 352 351 349 350 349 348 348 349 349 349 348 348 347 347 348 348 347 348 349 350 350 351 351 351 351 349 345 344 346 348 350 351 351 352 352 351 350 349 348 348
342 346 349 353 356 360 364 365 366 356 354 347 346 359 359 362 360 357 356 353 354 350 353 353 355 357 355 359 358 362 362 356 354 354 354 354 355 355 353 354 354 352 353 352 353 353 353 354 354 353 352 353 352 350 350 351 352 353 351 350 350 349 348 348 348 349 349 348 348 347 347 347 348 347 348 350 351 350 350 351 351 350 348 346 346 347 350 351 352 352 351 351 351 351 349 348 347
345 350 352 356 360 363 368 371 370 361 355 343 342 358 361 361 357 355 354 351 353 351 353 353 356 355 357 361 358 360 360 356 354 354 354 355 355 355 354 354 354 353 353 352 353 352 352 353 353 353 352 352 352 350 350 352 353 352 352 350 350 350 349 349 349 350 349 348 347 346 346 347 346 347 349 351 351 350 351 352 351 350 349 347 347 349 351 352 352 350 350 350 350 350 350 348 348
348 355 354 358 367 368 369 369 371 364 356 347 346 360 357 354 353 354 353 352 353 352 353 352 357 355 355 359 357 360 359 356 356 354 355 355 355 355 354 354 354 353 352 352 352 352 353 353 353 354 352 352 352 351 351 352 352 352 352 351 350 350 348 348 349 349 349 348 346 345 346 346 345 346 349 351 352 351 352 351 350 350 349 349 349 351 352 352 351 350 350 350 349 350 350 349 348
353 358 356 357 364 363 364 360 362 358 356 356 354 358 353 351 352 352 353 353 352 352 352 354 358 357 358 356 355 358 358 357 356 355 355 355 355 355 354 354 354 353 352 352 352 352 352 353 353 353 353 352 352 352 352 353 353 352 353 352 351 349 348 347 348 348 348 348 346 345 345 344 344 344 347 351 352 352 351 350 349 350 350 349 350 351 352 352 351 350 350 350 349 350 349 347 347
357 363 360 362 364 363 366 357 354 353 352 357 354 354 353 351 352 351 354 354 354 352 353 356 355 358 360 357 357 356 355 357 355 355 355 355 355 355 355 354 354 354 352 352 352 352 352 352 352 352 353 354 353 353 352 353 353 352 353 352 350 349 349 347 347 347 347 347 345 345 344 343 342 343 347 350 352 352 351 350 350 351 352 351 350 349 351 352 350 349 350 349 349 348 347 346 344
359 365 362 366 369 366 365 356 354 354 350 353 351 353 352 352 354 351 353 354 355 353 354 357 354 361 361 356 359 358 355 356 355 355 355 356 355 355 355 355 354 354 353 351 351 352 353 353 352 352 353 353 354 353 352 353 353 352 352 351 350 350 349 347 346 345 345 345 345 344 344 343 341 342 345 349 351 351 351 351 351 351 351 351 350 350 350 350 349 348 349 349 348 347 346 344 342
359 363 362 365 367 360 356 352 351 348 348 352 350 352 351 356 359 352 353 354 355 353 354 356 356 362 361 358 359 356 355 356 355 356 355 356 356 355 355 355 355 354 352 351 351 351 353 353 353 353 353 353 354 354 353 352 352 352 351 350 350 349 348 346 345 345 345 345 345 344 344 343 342 342 345 349 350 350 351 350 349 348 347 348 350 350 350 348 346 346 346 347 347 346 345 342 341
360 362 363 364 362 352 345 345 343 343 346 349 348 350 350 353 356 351 352 354 354 353 354 355 357 361 360 359 360 356 356 356 355 356 355 356 356 355 356 356 355 353 351 351 351 351 353 353 354 354 353 353 354 354 352 351 352 352 351 350 349 348 347 346 344 344 344 344 344 345 343 342 342 342 344 347 349 348 349 348 347 345 345 347 347 345 346 345 343 344 344 345 345 345 344 342 340
364 361 361 361 354 342 338 337 336 343 346 346 347 349 350 349 350 349 352 354 353 354 354 355 358 359 359 360 359 356 356 356 356 356 356 356 356 355 356 356 355 353 350 351 351 352 353 353 353 353 353 352 353 353 351 351 352 352 352 351 348 347 346 345 345 345 345 345 344 344 343 343 343 343 344 347 348 348 349 350 350 348 347 348 344 342 345 345 344 344 344 344 344 344 344 342 340
364 362 359 356 347 343 341 334 333 344 347 347 349 348 350 349 350 349 352 356 354 354 354 355 358 357 359 360 358 356 356 356 356 356 356 356 356 356 355 356 356 353 349 350 352 352 352 351 351 351 351 351 351 351 351 351 351 352 352 350 349 348 347 346 346 346 346 345 345 344 342 343 344 343 345 346 347 350 351 348 348 347 345 346 344 344 346 345 345 345 345 344 343 343 343 342 341
359 358 356 351 347 348 344 336 337 344 343 344 347 346 349 348 350 349 350 355 354 355 354 354 354 355 359 358 357 355 356 356 356 356 356 356 356 356 356 356 356 354 351 350 352 352 352 351 351 351 351 350 350 350 350 351 352 352 352 350 350 350 349 348 347 347 347 346 345 344 342 343 343 344 345 345 347 350 349 346 348 345 341 343 344 345 345 344 344 344 344 344 343 343 342 342 341
355 355 353 352 351 349 342 338 339 335 335 341 344 346 347 348 349 347 349 351 353 355 354 352 351 355 358 358 358 356 355 356 356 356 355 355 356 356 356 356 356 355 353 352 351 352 352 351 350 350 350 349 348 349 350 350 351 351 351 351 350 350 349 348 347 347 347 346 345 344 343 343 343 344 344 346 348 347 346 345 344 341 339 341 342 343 343 343 343 342 343 342 343 343 341 342 341
351 350 352 355 350 346 343 342 341 332 334 342 343 345 346 346 346 345 349 350 352 352 351 352 352 357 358 359 360 356 356 356 355 355 355 356 356 356 356 356 356 356 356 354 352 351 351 350 349 349 349 348 348 349 349 349 349 350 351 350 350 349 348 347 347 347 346 345 344 345 344 343 343 344 345 346 346 344 342 340 338 337 337 338 338 341 341 342 342 342 342 342 342 343 341 343 344
346 355 366 356 344 345 346 344 345 336 335 342 340 343 345 344 346 346 348 348 351 351 352 353 350 355 355 356 357 354 355 355 355 355 355 357 356 356 356 356 356 357 357 355 352 352 351 350 349 349 349 348 348 349 349 350 349 351 351 350 349 348 347 347 347 347 346 345 345 345 344 344 344 344 346 345 344 344 342 338 338 339 336 335 338 341 342 343 344 342 341 341 342 342 342 344 347
347 372 378 350 342 350 349 344 347 340 336 340 339 341 344 345 346 346 347 346 350 352 352 352 349 351 353 354 355 354 354 354 354 354 355 356 355 356 356 357 357 357 357 355 354 353 352 350 349 349 349 348 348 349 349 350 351 351 350 349 349 347 347 347 347 346 346 346 345 345 344 344 344 345 345 344 344 343 340 338 338 337 336 339 342 343 344 345 345 344 343 343 342 342 344 346 348
350 374 368 343 346 352 346 346 349 345 340 338 338 342 342 343 344 344 346 345 349 350 349 349 350 351 352 354 354 354 355 353 354 355 356 356 355 356 356 357 357 358 357 357 356 355 354 350 349 350 349 349 349 349 349 350 351 351 349 348 348 347 347 347 347 346 346 346 346 345 344 344 345 347 346 346 347 344 341 343 341 339 341 344 345 346 346 349 349 346 346 346 345 346 348 348 348
350 365 360 347 350 347 343 348 350 347 344 340 339 342 340 340 341 342 343 345 347 347 349 351 353 353 352 353 353 354 355 353 355 356 357 357 356 357 357 357 357 358 358 357 357 356 356 351 350 351 350 350 350 349 350 350 350 350 349 348 347 346 346 347 346 345 346 345 345 345 344 346 350 351 350 350 352 349 347 346 345 345 346 348 349 348 348 351 352 350 349 349 349 349 350 349 349
347 357 360 355 350 346 344 345 347 346 344 342 340 339 339 338 339 340 341 345 346 346 352 355 357 355 353 352 352 353 354 354 355 357 358 357 357 357 358 358 357 358 358 358 357 357 357 353 352 353 352 353 352 350 350 349 349 349 348 347 346 346 346 346 346 345 346 345 345 344 344 350 353 352 352 353 354 352 349 346 346 349 350 351 351 349 349 351 351 351 351 351 351 351 351 351 350
345 350 356 355 347 346 344 343 345 344 343 343 341 339 339 337 338 339 340 346 346 347 353 355 356 355 353 352 352 353 353 353 354 356 357 357 358 357 358 358 358 358 358 358 358 358 358 356 357 355 355 356 353 351 351 348 348 349 348 347 346 346 346 345 345 346 346 346 347 344 346 352 352 352 352 353 353 351 349 348 349 351 351 351 351 350 350 350 350 350 350 351 351 351 351 351 350
344 345 347 347 343 344 343 343 344 344 345 345 341 339 338 336 337 336 340 347 345 348 352 352 353 353 353 352 352 353 352 353 354 355 357 358 358 358 358 358 358 358 358 359 358 359 359 358 359 356 353 354 353 354 354 349 347 349 347 346 346 345 345 344 344 345 347 350 351 347 349 353 352 351 351 351 350 346 346 350 351 351 350 350 350 350 350 352 352 349 349 350 350 351 351 351 350
341 342 343 342 341 342 341 341 342 344 345 345 342 339 338 336 336 336 340 344 343 348 352 351 351 352 352 352 352 352 352 353 353 354 356 357 358 358 359 358 358 358 358 359 359 359 359 359 358 354 351 352 353 355 357 351 347 351 349 346 347 346 345 344 345 348 351 353 354 352 353 353 351 351 351 351 350 347 348 351 352 350 350 349 349 350 350 353 353 350 350 350 350 351 351 351 351
338 339 342 342 341 340 342 341 341 343 345 345 343 340 340 338 337 339 340 343 346 350 351 351 351 352 352 352 352 352 353 353 353 354 354 356 357 357 358 358 358 358 358 359 359 359 358 359 357 353 351 353 354 355 358 353 347 354 355 351 351 349 348 346 347 352 354 354 353 353 354 353 351 351 351 352 351 350 350 351 351 350 350 350 350 350 351 352 352 350 350 350 350 351 351 351 351
336 336 338 340 340 340 341 341 340 343 344 344 344 343 341 339 339 340 341 344 349 351 351 352 351 352 352 352 353 353 354 354 353 353 353 354 355 356 357 357 358 357 358 358 358 359 358 358 357 354 353 354 355 356 358 355 350 356 358 355 355 353 352 352 352 355 355 354 353 352 353 352 351 351 351 352 351 352 351 351 351 351 351 350 349 351 352 352 353 352 350 351 351 350 350 351 351
335 335 335 336 338 339 340 341 341 341 340 342 345 342 340 339 339 339 342 346 349 351 352 352 353 352 352 352 352 354 355 353 352 353 352 352 353 355 355 356 357 357 357 358 358 358 358 357 357 356 354 354 356 357 358 357 353 355 357 356 356 355 355 355 354 355 355 354 352 351 353 352 351 350 350 350 351 352 352 352 353 352 352 351 350 352 353 353 353 352 351 351 351 350 350 350 349
335 334 334 333 335 337 339 339 340 340 339 342 344 342 341 339 340 339 342 347 347 351 353 351 352 353 352 352 352 354 354 352 351 351 351 350 351 352 354 355 356 357 358 358 359 358 358 358 358 358 355 353 357 358 357 357 355 354 355 356 356 355 355 355 355 355 355 354 351 351 353 353 352 351 351 350 350 352 352 352 353 353 352 351 350 352 353 352 352 351 351 351 350 349 348 346 345
334 334 332 332 333 334 337 338 338 338 339 342 343 343 342 339 340 339 341 345 346 350 352 351 352 353 352 352 353 355 353 352 350 350 350 349 351 352 352 355 355 356 358 358 359 358 359 358 358 359 355 352 355 357 356 356 356 355 354 355 355 354 355 354 355 355 354 353 352 352 352 352 353 353 352 351 351 352 353 353 353 353 352 351 350 352 352 351 351 351 351 351 349 346 346 346 345
332 332 332 332 331 332 336 337 337 337 339 341 342 342 343 341 340 339 339 343 346 348 350 350 351 352 352 352 354 355 352 350 349 349 350 350 350 351 351 353 354 355 357 357 358 358 358 358 358 358 356 354 356 356 356 355 356 355 354 355 355 354 354 354 354 354 353 353 353 353 352 351 353 354 353 353 352 352 353 353 353 353 352 352 352 352 353 352 352 351 351 350 348 346 346 344 340
331 332 331 330 329 331 335 336 337 337 337 339 341 336 339 344 341 338 337 341 345 347 349 349 349 350 350 352 353 354 351 350 350 349 350 350 349 351 352 353 353 354 356 356 357 357 357 357 358 358 357 357 357 357 356 355 354 354 354 355 355 354 354 354 354 353 353 353 354 354 353 351 352 353 353 354 352 353 354 354 355 355 353 353 353 352 352 352 351 351 350 348 346 345 343 338 336
330 330 330 330 323 325 334 334 337 337 336 337 341 333 337 346 343 339 337 340 344 346 348 348 348 349 348 351 352 352 351 349 349 349 349 349 349 351 352 353 353 353 355 355 356 356 356 357 357 358 358 357 358 357 356 356 355 355 355 355 356 355 354 353 354 354 354 354 354 354 354 354 353 353 352 351 351 353 355 355 356 355 355 354 352 352 351 351 351 351 348 347 346 342 339 337 339
329 324 321 327 321 323 334 333 336 336 336 337 340 334 339 347 344 339 338 339 343 344 346 346 347 349 346 349 352 350 350 348 347 348 348 348 349 350 351 353 353 354 355 355 356 355 356 357 357 357 358 358 357 358 356 356 355 355 356 356 355 356 355 354 354 354 355 354 354 355 355 356 355 354 352 350 349 351 354 355 356 356 354 353 352 351 351 351 350 348 346 346 345 341 339 342 343
328 323 316 320 320 321 329 334 337 338 338 338 339 339 343 348 345 341 338 339 340 342 343 343 345 347 346 348 350 349 349 349 348 347 347 348 348 349 351 352 353 354 356 356 356 355 355 356 357 357 358 358 357 357 357 355 355 356 356 356 356 356 356 356 356 354 355 355 355 356 356 356 356 355 353 350 350 351 354 355 356 355 353 352 352 351 351 351 348 348 347 346 345 340 340 343 343
321 324 319 320 323 321 323 332 340 338 339 340 340 343 344 347 346 342 340 340 340 340 341 342 343 345 346 347 348 349 349 350 349 347 346 347 348 348 350 351 352 354 355 356 356 355 355 355 356 357 357 358 356 356 358 356 355 356 356 355 355 355 356 357 356 354 354 355 355 355 356 356 356 356 353 351 350 352 355 356 357 356 354 353 351 350 349 348 348 348 347 345 344 340 340 342 341
316 318 318 318 322 323 322 330 337 337 339 341 341 342 345 345 345 343 342 341 341 340 341 341 342 344 345 346 347 349 349 349 348 347 346 347 348 348 349 351 352 354 354 354 355 356 356 355 356 356 357 358 356 355 358 356 356 356 356 356 355 354 355 356 356 354 354 354 355 355 356 356 356 356 354 352 351 354 357 357 357 357 355 352 349 348 348 347 347 346 344 345 342 339 342 343 341
322 322 320 318 318 322 327 332 337 338 338 341 341 339 343 345 344 345 343 342 343 341 342 341 342 343 343 344 347 349 350 349 347 347 347 348 349 348 350 351 351 352 353 353 354 354 355 355 356 357 356 358 356 355 357 357 357 357 356 356 355 355 355 356 356 354 353 353 354 355 355 355 356 356 355 353 352 355 358 358 357 357 354 349 346 348 348 346 347 345 344 345 341 339 342 342 340
328 325 323 321 320 320 330 336 337 338 337 337 343 341 343 345 344 345 345 344 345 344 344 342 342 343 342 343 347 350 351 350 348 347 348 349 350 349 350 351 351 353 352 353 353 352 354 355 355 357 357 358 357 356 358 358 358 358 357 357 357 356 356 356 357 355 354 354 354 355 355 354 355 357 356 354 355 357 357 358 357 355 351 345 345 348 347 345 344 342 343 341 338 340 340 338 337
328 325 322 321 321 322 331 338 337 339 337 336 344 343 343 346 345 346 346 345 346 345 346 344 343 343 343 343 346 349 350 349 349 349 349 349 350 350 350 351 351 353 353 353 354 352 354 355 354 356 357 358 359 357 358 358 358 358 357 357 357 357 357 357 358 356 354 355 355 355 355 356 356 357 356 355 357 357 356 358 357 351 346 344 345 346 344 343 339 340 344 340 340 343 338 336 334
326 325 322 318 322 325 330 337 337 338 336 337 343 342 343 347 345 346 347 347 349 348 347 347 345 345 345 344 345 348 351 351 350 350 349 348 350 351 351 351 351 352 354 353 355 353 355 355 353 356 357 358 359 358 358 358 358 358 357 357 357 358 358 357 358 357 355 355 355 355 356 357 358 358 357 356 357 357 356 357 354 348 346 346 345 345 343 340 336 338 342 340 342 342 338 338 336
325 324 319 316 323 323 321 331 338 338 337 339 343 340 342 347 346 347 346 348 352 350 348 347 347 346 345 345 344 347 350 351 352 350 350 348 349 351 350 352 351 352 354 354 355 355 354 356 354 355 357 358 359 358 358 357 358 359 358 357 357 358 358 357 358 357 356 356 354 355 356 357 359 359 358 358 358 359 357 354 348 345 347 347 344 344 342 338 337 340 341 341 341 338 337 340 339
324 326 321 318 324 324 322 330 337 336 336 341 340 331 334 345 347 349 347 348 351 349 349 349 349 348 346 345 344 346 348 350 352 351 351 350 349 350 350 351 351 351 355 356 356 356 355 356 356 355 357 359 359 359 358 357 358 359 358 358 357 357 358 357 357 357 357 356 354 355 355 356 360 360 360 359 359 359 356 350 345 344 347 347 342 343 341 336 339 342 341 342 339 334 338 340 338
319 325 327 325 327 328 329 331 330 326 326 337 336 323 326 342 347 349 348 349 349 349 350 349 352 352 348 347 346 346 347 348 352 352 350 350 349 349 350 351 351 350 354 356 357 357 356 356 357 356 356 359 359 359 358 358 359 359 358 357 357 356 357 357 357 357 356 355 355 356 355 357 360 360 360 360 358 358 353 348 347 346 347 346 342 342 340 337 340 343 340 340 338 333 336 340 339
313 322 329 328 330 328 328 327 323 319 321 337 337 328 326 333 339 349 349 349 350 349 349 348 351 353 349 348 348 346 347 347 350 352 351 350 349 350 350 350 350 350 352 355 356 358 358 357 358 358 356 358 359 359 358 358 359 358 357 357 357 357 356 355 355 355 354 354 354 357 356 358 360 360 361 359 357 356 352 349 349 347 346 344 342 343 342 337 338 341 339 339 338 333 333 340 340
313 324 329 329 330 327 327 325 321 323 328 334 335 334 328 325 334 348 349 348 350 348 349 349 351 353 350 349 350 348 348 348 350 351 351 351 350 349 351 351 350 350 351 353 356 357 358 358 358 359 358 357 358 359 359 358 359 358 357 357 358 358 356 354 353 353 353 353 354 358 358 358 360 360 360 358 357 355 350 349 350 347 346 344 342 343 339 335 336 339 338 337 338 334 334 339 340
319 327 328 329 330 329 330 325 320 324 325 321 326 329 326 324 336 349 348 345 348 349 349 350 352 353 351 350 350 350 349 349 349 350 351 352 350 349 350 351 350 351 351 352 354 357 358 358 358 359 360 358 358 359 359 359 358 358 357 357 358 358 357 354 353 353 354 354 354 356 357 357 359 359 358 356 355 354 350 349 349 348 347 345 343 341 335 334 338 339 337 337 336 334 335 338 339
324 327 328 329 329 329 330 326 321 320 319 317 323 324 322 324 332 342 343 339 343 350 349 350 353 352 351 350 350 351 351 351 350 349 351 351 350 349 350 352 351 351 352 353 354 356 358 359 359 359 360 360 359 358 359 359 358 357 358 357 358 358 358 356 354 353 355 355 354 355 355 356 358 357 356 355 354 353 350 349 349 348 347 346 345 339 334 338 341 338 338 337 334 333 337 338 338
325 326 326 325 326 329 331 329 322 316 316 320 322 322 323 323 327 335 341 340 344 351 350 350 352 352 352 351 349 350 351 352 351 350 350 351 350 349 351 353 353 352 353 354 355 356 359 360 360 360 360 361 360 359 358 358 358 358 358 358 358 359 359 358 356 354 356 356 354 354 355 355 356 355 355 355 353 353 350 350 349 347 346 346 343 336 334 340 341 338 339 336 330 332 336 337 339
325 325 323 318 318 322 321 321 321 316 315 320 323 323 320 318 326 337 344 347 347 348 350 350 350 351 353 351 348 349 351 351 351 351 351 352 353 351 351 353 354 353 354 355 355 356 359 361 362 361 360 361 361 360 359 358 358 359 359 359 359 360 360 359 359 356 357 357 355 355 356 355 355 354 355 354 352 352 351 351 349 346 346 345 340 337 337 340 340 338 336 333 333 336 337 336 338
324 322 318 313 312 314 314 314 317 316 315 319 322 321 316 317 332 344 345 347 346 345 348 348 348 349 350 351 349 349 351 350 351 352 352 354 356 354 352 353 354 354 354 355 356 357 360 362 363 362 361 361 361 362 360 358 358 358 359 360 359 361 361 360 360 358 358 357 356 356 356 355 354 354 355 354 353 352 351 350 348 346 348 345 340 339 340 340 339 336 334 335 338 340 340 339 339
322 317 313 312 312 313 314 314 315 316 317 319 320 321 314 316 332 346 345 344 344 344 345 346 348 347 347 349 349 348 349 350 350 353 354 355 357 356 352 352 354 354 354 355 356 358 360 363 364 363 362 362 361 362 362 360 359 359 359 360 360 361 361 360 359 359 359 358 357 356 354 353 354 353 354 353 352 352 351 350 347 346 348 345 340 339 340 341 339 337 337 339 341 340 340 342 339
321 321 318 314 312 312 313 314 314 316 318 318 318 318 313 315 332 347 344 341 343 344 343 345 347 347 348 348 349 348 348 350 352 354 356 356 357 356 353 352 354 355 354 356 357 358 360 363 364 364 363 363 362 362 362 362 360 359 359 360 361 361 361 360 359 359 359 357 356 356 354 353 354 354 353 353 353 352 351 349 347 348 347 343 341 339 339 341 339 339 340 341 340 340 339 340 339
321 325 318 312 316 317 314 315 315 314 316 316 314 317 321 328 342 346 340 341 344 343 343 346 346 347 348 349 349 348 349 351 353 355 357 358 357 355 353 353 354 355 355 356 356 357 360 362 364 365 364 364 363 363 362 362 362 361 360 361 361 361 361 360 360 359 358 357 355 355 354 353 353 354 354 353 353 352 351 349 348 348 346 342 342 338 337 341 339 339 342 340 339 340 340 339 339
320 319 313 316 324 322 313 313 315 313 315 316 313 316 324 329 335 338 337 342 345 343 343 345 348 349 350 350 350 350 351 352 353 357 358 358 358 355 354 353 354 355 355 356 357 357 359 362 364 365 365 364 364 363 363 363 363 362 362 362 361 361 362 361 360 359 358 357 355 354 355 354 354 353 354 354 353 352 352 349 347 347 343 342 342 338 336 340 340 340 342 340 338 340 340 339 339
320 313 315 322 325 322 316 312 313 314 315 315 313 314 319 319 326 336 337 343 347 344 344 347 348 349 350 352 352 351 353 352 352 356 358 357 358 356 354 354 354 356 356 356 357 357 359 360 363 364 365 365 365 364 364 363 363 364 362 362 362 361 361 361 360 360 359 357 357 356 356 356 355 354 353 353 353 353 352 350 347 346 343 342 343 340 336 338 340 341 341 340 339 340 340 339 338
323 318 323 323 314 312 313 311 312 314 314 314 313 315 317 317 323 332 333 340 348 345 343 347 348 347 348 350 353 354 353 353 352 353 355 356 357 356 354 353 354 356 356 356 356 357 358 360 363 364 364 366 365 365 364 363 363 364 363 363 362 361 361 360 360 361 360 359 358 357 357 356 356 355 354 353 353 353 352 350 348 346 344 343 343 341 337 337 340 340 341 340 339 339 340 339 338
325 323 325 323 316 313 313 311 312 314 315 314 315 315 316 325 337 337 335 338 343 345 345 345 345 345 345 347 351 353 353 353 352 351 353 354 354 355 354 353 354 356 356 357 357 357 358 359 362 364 365 365 366 365 365 364 363 363 364 363 363 362 361 360 360 360 361 360 359 359 358 357 356 355 355 353 352 352 351 350 349 347 346 343 343 342 338 338 341 341 340 340 339 338 339 339 339
320 318 317 316 318 317 316 314 312 313 314 314 316 316 316 333 349 344 344 344 338 342 346 345 345 344 343 347 351 351 352 352 351 349 351 353 354 354 353 353 355 357 357 357 357 357 358 359 361 363 365 365 366 366 365 364 364 364 364 364 363 362 361 360 360 360 360 360 360 359 358 357 357 356 355 355 353 351 350 350 349 348 345 344 343 342 339 340 342 342 342 341 339 338 339 339 339
321 318 316 316 317 314 312 314 313 311 311 311 315 317 320 338 345 340 350 352 341 341 345 344 345 343 343 347 350 350 351 351 350 349 349 351 356 356 354 355 356 357 359 357 357 358 357 359 360 362 365 366 366 367 366 365 365 364 364 363 363 362 361 360 360 360 360 360 360 360 358 358 357 356 356 355 353 352 350 349 349 347 345 344 343 342 340 340 342 343 342 341 340 339 339 339 339
Wind_Speed
15 14 14 14 11 9 4 1 1 0 1 2 0 2 1 2 4 5 3 4 4 4 9 10 9 7 7 9 10 10 9 3 1 3 2 5 19 22 18 20 23 24 24 24 22 21 22 23 23 23 24 24 24 25 26 26 25 25 24 24 23 23 23 23 23 22 22 21 21 20 20 20 20 20 19 19 18 17 16 16 15 15 15 15 14 14 13 12 12 12 11 11 11 10 10 10 10
16 15 14 14 9 5 1 0 1 1 1 2 0 1 2 3 4 7 5 7 7 9 12 12 13 13 14 12 10 12 11 9 7 6 5 16 23 18 21 23 23 25 24 25 24 23 23 23 22 23 23 23 24 25 26 25 25 24 24 24 23 23 23 22 22 21 21 21 20 20 20 20 19 19 19 18 17 16 16 15 15 14 14 14 14 13 13 12 12 11 10 10 10 9 9 9 9
18 17 16 14 7 2 0 1 1 1 1 1 1 2 4 3 5 6 9 11 13 12 12 11 13 12 13 13 9 9 7 8 11 10 9 20 19 17 25 22 22 25 24 25 25 25 25 23 23 23 23 22 23 25 25 25 24 23 23 23 22 22 22 21 21 20 20 20 19 19 19 19 18 18 18 17 16 15 15 15 14 14 14 14 13 13 12 11 11 10 10 9 9 8 8 8 8
19 18 18 12 2 1 0 0 1 0 0 2 1 3 4 5 7 10 11 11 13 11 10 11 11 9 12 14 9 9 9 6 9 10 9 16 18 24 27 23 23 23 25 25 25 27 25 24 23 23 23 23 23 24 25 24 22 22 22 22 22 21 20 20 20 20 19 19 19 19 18 18 18 17 17 16 16 15 14 14 13 13 13 13 12 12 11 10 10 10 9 9 9 8 7 7 7
19 17 17 10 2 1 1 2 1 0 2 2 0 3 4 8 12 13 11 11 12 11 11 9 9 10 11 11 6 5 9 8 10 12 11 17 26 29 27 25 24 23 25 25 26 28 26 24 24 23 23 23 23 24 24 23 22 22 21 21 21 20 20 19 19 18 18 18 18 18 17 17 17 16 16 15 15 14 14 13 13 12 12 12 11 11 10 10 9 9 9 8 8 8 7 7 7
15 11 11 6 1 1 1 1 1 3 5 3 1 1 5 11 12 13 13 13 12 12 13 11 11 11 10 9 7 6 9 11 11 13 17 24 30 29 27 27 24 24 26 25 27 27 27 25 23 24 24 24 23 23 24 23 22 21 20 20 20 20 19 19 18 18 18 17 17 17 16 16 16 15 15 15 14 13 13 12 12 12 11 11 10 10 9 9 9 8 8 8 7 7 7 6 7
14 7 5 3 1 1 1 2 3 5 6 4 4 3 7 11 11 14 14 13 12 12 13 12 13 11 9 7 7 10 15 15 13 17 25 28 29 29 28 26 25 26 25 27 27 27 27 25 24 24 23 23 22 23 23 23 22 21 20 20 19 19 18 18 18 17 17 17 17 16 15 15 15 14 14 14 13 12 12 12 11 11 10 10 9 9 8 8 8 7 7 7 7 6 6 6 7
16 6 2 2 1 1 1 3 6 5 5 6 6 6 8 11 8 10 14 12 11 10 13 13 13 12 9 8 6 11 19 19 19 25 31 29 28 29 27 27 28 26 25 27 28 27 25 24 24 23 23 22 21 22 22 22 22 21 20 19 19 18 18 18 17 17 17 16 16 15 15 14 14 13 13 13 12 12 12 11 11 10 10 9 8 8 7 7 7 7 6 6 6 6 6 6 7
13 6 1 2 2 3 2 5 7 3 8 8 7 7 9 11 4 8 14 12 11 11 14 13 11 13 10 11 9 9 18 24 27 30 32 29 27 27 27 27 28 27 27 28 29 28 25 24 24 23 23 22 22 21 22 22 21 20 19 19 19 18 18 17 17 16 16 15 15 15 14 13 13 13 12 12 12 11 11 10 10 9 9 8 8 7 6 6 6 6 6 6 5 5 6 6 7
7 4 1 2 2 4 4 7 4 4 9 8 7 9 9 10 8 9 15 13 13 13 15 14 13 15 13 13 9 9 19 27 29 29 30 29 26 26 27 26 27 29 29 29 29 28 26 24 23 23 23 22 22 21 22 22 20 20 19 19 18 18 18 17 16 16 15 15 14 14 13 13 12 12 11 11 11 10 10 9 8 8 7 7 6 6 5 5 5 5 5 5 5 5 5 6 7
2 2 1 2 2 3 5 5 3 6 8 8 7 10 7 9 10 10 14 15 14 16 16 14 14 16 15 11 7 13 24 27 28 28 28 27 26 26 27 26 25 28 31 31 29 27 26 24 23 23 22 23 23 22 22 21 21 20 19 19 18 18 17 16 16 15 15 14 13 13 12 12 11 11 11 10 10 9 9 9 8 7 6 5 4 4 4 4 4 4 5 5 4 4 4 5 6
1 3 1 2 2 3 6 5 4 8 7 8 7 8 6 8 12 11 14 16 16 17 14 12 12 13 13 9 5 16 25 24 26 28 27 26 26 26 27 27 25 27 32 31 29 27 26 24 23 23 22 23 23 23 23 22 21 19 19 19 18 18 17 16 15 14 14 13 13 12 12 11 10 10 10 10 9 9 8 8 7 6 5 4 3 4 4 4 4 4 4 5 4 4 4 5 5
2 3 1 3 3 4 7 7 4 9 5 5 6 8 7 7 9 12 14 16 16 15 14 14 14 13 11 8 7 14 20 22 27 27 27 27 26 27 26 26 25 27 30 30 29 27 26 25 24 23 22 23 23 23 23 22 20 19 19 18 18 17 16 15 14 14 13 13 12 11 11 10 10 9 9 9 8 9 8 7 6 5 4 3 2 3 3 3 3 3 4 4 4 4 4 5 6
4 3 2 3 4 5 7 6 2 6 4 4 6 8 9 7 8 10 12 15 14 13 16 17 15 13 11 8 7 9 15 23 28 28 28 27 27 27 26 27 27 27 28 29 29 28 27 25 25 24 23 23 23 23 22 21 20 19 18 18 17 16 16 15 14 14 13 13 12 11 10 9 9 9 9 9 8 8 7 6 5 4 3 2 2 2 2 2 3 3 3 3 3 3 4 5 6
5 2 1 2 4 5 5 6 5 2 4 5 5 7 9 8 9 10 11 12 13 14 16 17 14 11 11 11 8 10 20 28 28 28 29 28 27 27 27 28 28 27 27 28 28 28 27 25 25 24 24 24 24 23 22 20 20 19 18 18 17 16 16 15 15 14 13 13 12 11 10 9 9 9 8 9 8 7 6 5 4 3 2 1 1 1 2 3 3 3 3 3 3 2 3 4 5
4 1 2 2 3 3 4 6 7 1 4 4 5 6 8 8 8 9 11 12 12 14 13 13 11 10 14 13 13 20 29 32 30 30 29 29 28 26 28 27 26 27 26 27 28 27 26 25 25 24 24 24 24 23 22 22 20 19 18 18 17 17 16 15 15 14 13 12 11 11 10 10 9 9 8 8 7 6 5 5 4 2 1 1 1 2 3 4 4 4 4 3 2 2 2 2 3
2 1 2 1 3 2 2 4 5 1 5 5 5 6 8 8 8 9 12 13 14 15 12 12 10 13 16 15 23 31 32 32 32 31 28 28 27 26 26 25 25 25 24 27 27 26 25 25 25 24 24 24 24 23 23 23 21 19 19 18 17 17 16 15 15 14 13 12 12 11 11 10 9 9 8 8 7 6 5 4 2 1 1 1 2 2 2 2 3 4 4 3 2 2 2 2 2
2 2 1 2 3 3 4 3 6 4 3 6 7 8 8 8 8 8 11 13 14 13 12 14 13 15 19 23 30 32 31 32 31 29 25 24 24 23 23 24 25 24 25 25 25 26 25 26 26 25 25 24 24 24 24 23 21 20 20 19 18 17 16 15 15 14 13 13 12 11 11 10 9 9 7 7 6 5 5 3 1 0 0 1 1 1 0 1 2 2 3 3 3 2 2 3 2
3 3 2 2 5 5 7 9 7 6 1 4 8 11 9 8 8 7 9 13 14 11 12 16 17 18 21 27 31 30 31 31 28 27 24 23 22 21 21 22 24 25 26 26 26 26 26 28 27 26 26 25 24 24 24 22 22 21 20 20 18 18 16 15 15 14 13 13 12 12 11 10 9 8 6 7 5 3 3 2 1 1 1 0 0 1 1 1 2 2 2 2 3 3 3 3 3
4 5 2 5 7 6 8 11 7 4 7 5 6 10 10 8 7 7 9 13 13 10 13 16 18 20 21 23 27 30 30 29 29 27 23 23 23 22 22 22 24 25 26 27 28 27 27 29 28 27 27 25 25 25 24 23 22 22 21 20 19 18 17 16 14 14 13 13 12 12 11 10 9 7 7 8 6 4 3 2 2 1 1 1 0 1 2 2 3 3 3 2 3 4 4 4 4
3 5 5 7 9 8 14 8 13 7 9 3 4 7 10 9 6 7 12 12 10 11 16 19 20 22 22 21 22 26 26 26 28 27 24 23 23 23 22 23 24 25 27 27 28 28 28 29 28 28 27 27 26 25 23 23 23 22 21 20 19 18 16 16 15 14 14 13 13 12 12 10 8 8 8 9 9 8 6 4 4 3 2 1 0 1 2 4 4 3 3 3 3 4 5 5 4
5 8 11 11 11 8 9 3 15 12 3 0 3 5 9 9 6 10 15 11 9 13 19 22 22 21 22 21 20 22 21 21 24 25 25 24 23 23 22 23 24 25 26 26 28 29 29 28 28 28 29 28 26 25 22 22 23 22 21 20 19 17 17 16 15 15 15 14 13 12 12 9 9 10 9 9 10 9 8 6 6 5 3 2 1 1 2 3 4 4 4 4 4 3 4 5 4
6 9 13 14 11 6 2 4 9 14 8 5 3 6 8 7 5 9 13 10 12 18 22 23 22 21 23 22 20 19 19 19 21 23 26 26 24 24 24 25 25 25 26 26 28 29 29 29 28 29 29 28 26 24 21 22 23 21 20 20 19 18 17 17 16 16 15 14 13 12 12 11 11 11 10 10 9 10 10 8 7 6 4 2 1 1 1 2 4 5 5 5 4 3 3 5 5
9 7 11 15 11 8 7 7 4 12 13 8 4 4 6 8 4 3 7 10 18 22 22 22 21 22 23 20 19 19 19 19 21 24 27 27 27 27 26 26 27 27 26 26 28 28 29 29 28 29 29 28 26 25 22 22 23 21 19 19 18 18 18 17 17 16 15 14 14 14 14 13 12 12 13 12 11 12 10 7 8 6 4 2 1 1 0 1 3 4 4 4 3 2 3 3 2
11 10 12 13 12 12 11 9 6 8 11 10 8 6 6 8 5 6 13 18 22 22 21 22 21 20 20 19 19 18 17 19 21 24 25 26 29 29 26 26 28 27 26 27 28 28 29 29 29 29 29 28 27 25 23 22 22 22 21 20 18 17 17 17 16 15 15 14 14 14 14 15 13 12 15 15 12 12 9 7 7 5 3 3 2 0 1 1 2 3 3 3 4 4 5 4 1
9 12 11 8 10 13 13 11 9 8 8 13 12 8 7 8 6 6 14 21 22 22 21 21 20 19 18 17 18 17 17 18 20 23 24 26 29 29 27 27 28 28 27 28 28 28 29 29 30 30 29 29 27 26 25 23 23 23 23 22 20 19 18 17 17 16 16 15 14 15 13 14 14 11 14 16 12 11 9 7 6 4 3 4 3 2 2 3 3 4 4 4 5 5 4 2 0
8 10 9 6 7 10 12 12 12 10 8 14 12 8 9 9 7 4 13 21 22 23 21 20 19 18 18 16 16 16 16 19 21 23 23 24 26 28 28 28 29 28 28 29 29 29 30 30 30 30 29 29 28 27 25 25 23 22 23 22 21 21 19 18 19 18 18 17 15 15 14 13 12 11 11 13 12 11 10 7 6 5 4 4 4 5 4 4 4 5 6 5 4 3 2 1 1
12 12 10 9 9 7 11 12 11 8 9 15 12 10 10 9 6 6 15 20 21 22 21 19 17 16 16 16 15 13 13 19 24 22 20 21 23 27 28 29 31 29 30 31 29 30 30 31 31 30 30 30 29 27 26 25 23 22 21 21 21 20 20 20 19 19 19 18 17 16 16 14 11 10 10 10 11 12 10 8 6 6 6 4 3 4 3 2 3 5 5 4 1 3 2 1 2
12 11 10 11 13 9 7 9 6 4 8 16 14 10 9 8 6 11 17 18 20 22 20 19 17 15 14 14 13 11 12 18 22 19 21 23 23 27 28 30 32 30 31 32 31 31 31 30 30 30 30 30 29 27 25 25 24 22 21 21 22 19 19 20 18 18 19 18 19 18 17 17 13 11 11 10 11 11 9 7 6 7 6 4 3 3 3 3 3 4 4 1 1 0 2 2 2
11 10 7 8 9 8 5 7 7 5 7 16 13 7 7 7 8 13 15 16 21 20 17 16 15 14 13 12 12 12 12 14 18 19 23 26 24 26 28 30 31 30 31 32 32 32 31 30 30 30 30 30 29 27 25 25 24 23 21 21 22 20 19 19 17 18 19 18 19 18 18 18 16 15 12 11 11 10 8 7 7 8 6 3 3 4 4 4 3 3 2 1 0 3 3 2 2
8 8 5 5 4 5 8 6 11 9 9 14 10 5 7 7 8 15 14 16 21 18 17 16 13 13 12 12 13 13 11 12 18 22 24 28 26 25 29 31 31 30 30 32 34 33 31 30 30 30 31 31 29 28 26 25 24 23 22 21 21 20 19 19 18 17 18 18 18 18 18 18 17 16 14 13 11 10 9 8 8 8 6 4 4 4 4 3 2 1 3 2 2 2 2 3 3
5 6 4 4 3 6 12 9 12 9 7 13 10 4 7 6 8 15 13 13 19 17 16 16 14 15 12 11 13 13 11 12 19 24 24 30 29 26 30 32 32 32 31 31 33 34 32 31 31 30 31 32 30 28 26 25 24 23 22 22 21 21 20 20 19 16 15 16 16 16 17 17 17 15 14 13 11 11 11 9 8 8 7 6 5 4 3 2 3 4 4 1 1 1 2 5 5
5 5 5 5 6 7 10 6 10 7 4 10 9 4 5 5 6 14 15 13 17 17 16 17 15 16 13 11 12 12 10 10 15 20 24 29 30 27 30 33 33 33 33 31 32 33 32 32 32 31 31 32 32 28 26 25 25 23 23 22 21 21 20 19 19 17 15 16 16 15 16 16 16 15 13 12 11 11 12 10 9 9 8 6 4 3 3 5 5 5 3 3 2 1 1 5 5
5 5 5 7 8 8 6 4 8 9 8 7 7 7 6 6 8 13 16 14 15 15 15 16 14 14 13 10 12 12 11 12 11 16 24 28 30 28 29 33 34 34 35 34 32 33 33 32 32 32 31 31 32 29 25 26 26 24 23 22 22 21 21 19 19 18 17 18 18 16 16 15 15 15 13 12 12 12 12 11 11 10 8 6 3 3 6 7 5 4 5 5 3 2 2 3 5
7 7 5 7 9 8 7 5 7 10 12 8 8 8 8 10 10 12 16 14 13 15 15 15 14 15 14 11 13 12 12 13 12 17 25 28 30 30 28 31 34 35 37 36 34 33 32 33 33 33 33 31 32 30 26 26 26 25 23 21 22 21 20 20 18 19 18 18 19 18 17 16 15 15 14 13 13 13 12 11 11 10 8 6 5 7 7 6 6 6 7 5 2 3 4 2 2
12 11 8 8 7 8 11 7 9 11 10 8 9 9 9 12 11 10 15 14 12 14 14 13 13 14 14 12 12 13 13 13 14 20 25 27 30 31 28 30 32 33 37 37 36 35 32 34 33 34 36 33 33 31 27 27 25 25 25 21 21 21 20 20 18 18 17 16 17 18 18 16 15 16 15 14 13 14 14 12 12 9 7 7 8 8 8 8 8 7 6 4 2 3 3 2 1
14 13 10 9 7 8 11 8 12 13 9 8 9 9 9 11 12 11 13 13 12 13 14 13 13 13 14 13 13 14 14 13 16 21 24 26 30 31 29 30 29 30 35 37 37 37 33 34 35 34 36 35 34 34 30 29 27 26 27 23 22 22 21 20 19 18 18 18 18 18 18 17 16 16 16 15 15 15 15 14 12 9 9 11 9 9 9 7 6 5 5 4 3 3 3 2 0
14 13 10 9 8 8 10 8 14 14 9 8 11 10 8 10 12 12 12 12 11 12 13 13 14 15 14 14 15 15 13 11 15 17 19 24 28 30 30 31 30 29 35 37 37 38 33 34 35 33 36 36 35 36 33 31 30 28 28 26 24 23 22 21 20 19 18 18 19 18 17 16 16 16 15 16 16 16 15 13 12 11 13 12 9 8 7 5 5 5 5 5 4 2 2 2 1
12 10 9 9 7 7 9 7 12 13 7 7 12 10 7 8 12 13 12 10 9 11 13 13 14 14 15 15 14 14 13 12 14 15 16 20 26 30 29 30 32 30 34 37 37 38 34 34 35 32 34 36 35 36 35 32 31 29 28 27 26 23 22 22 20 19 18 17 18 18 17 16 16 16 15 17 17 15 14 14 13 14 14 13 11 9 8 7 7 7 6 6 6 3 2 3 1
10 9 8 8 9 8 7 5 8 12 9 8 11 9 6 7 9 12 13 10 7 8 11 12 13 14 15 17 15 14 15 14 15 16 16 17 23 28 28 30 33 31 32 35 36 38 37 35 36 34 34 35 36 36 35 33 30 28 27 25 24 21 20 21 20 19 19 18 19 18 17 17 17 16 16 18 18 16 15 15 15 14 13 14 12 10 10 8 7 7 6 6 7 5 3 4 3
11 13 11 8 11 12 10 8 7 9 10 11 11 7 5 7 9 10 11 10 8 8 9 10 12 14 14 16 16 15 16 16 16 18 18 16 18 25 29 31 32 31 32 35 37 39 39 37 37 37 34 33 35 36 34 33 30 26 25 23 22 20 19 23 23 21 21 20 20 20 19 18 17 17 18 18 17 16 17 17 17 15 14 14 12 12 10 7 7 8 8 7 6 5 5 5 6
10 14 16 14 13 13 13 13 8 4 6 8 10 6 5 6 11 11 9 9 11 10 10 11 11 13 14 14 15 15 16 16 16 18 18 17 17 22 28 31 32 31 32 36 38 38 38 37 36 37 36 32 33 36 34 33 31 29 27 27 26 23 22 25 27 25 24 22 21 22 21 19 18 18 18 17 16 17 18 19 19 17 15 14 12 12 11 9 10 9 9 7 6 6 6 7 8
7 10 16 19 18 16 15 15 8 3 5 8 9 6 3 5 9 12 12 12 14 13 14 14 11 12 14 14 14 15 15 15 15 17 18 18 18 20 23 29 33 33 34 36 37 36 36 37 36 36 37 35 32 35 35 34 33 31 30 29 29 27 24 25 27 25 24 22 22 23 22 19 18 18 18 17 17 18 19 20 20 18 15 14 13 13 12 11 11 11 11 9 7 7 7 7 8
7 9 14 19 20 19 18 15 8 3 5 9 11 8 4 5 7 11 14 14 14 15 15 15 12 13 16 14 14 15 16 15 14 15 17 18 19 20 23 29 34 34 34 35 36 36 37 38 38 36 36 37 34 34 36 36 35 34 32 30 28 28 27 26 25 24 22 22 22 22 22 19 17 18 18 19 19 20 21 20 20 19 16 15 15 13 12 11 11 12 13 11 9 8 8 8 8
9 10 11 14 17 18 17 13 8 5 4 5 10 10 5 4 6 9 13 14 14 15 16 15 12 14 16 15 14 16 17 17 16 16 17 18 20 24 28 30 33 34 34 35 36 38 38 38 39 36 35 37 36 35 36 37 36 35 33 31 28 28 27 26 26 24 21 23 24 23 21 19 19 19 20 21 21 20 22 21 20 19 16 16 16 13 12 12 13 15 14 12 11 9 9 9 7
9 11 11 10 12 14 14 11 7 6 5 5 10 12 6 4 5 7 9 11 12 13 15 15 13 14 15 15 15 17 17 16 16 17 17 18 23 29 30 31 33 34 35 36 36 36 37 38 38 38 36 36 37 37 36 37 36 35 33 32 30 28 27 26 26 25 22 22 25 23 21 21 21 22 22 23 23 22 22 22 21 19 17 17 17 13 11 13 16 17 14 12 12 11 10 9 8
9 10 10 10 10 8 7 7 6 5 5 5 10 15 11 5 6 8 8 10 12 11 12 14 14 14 14 15 15 16 16 14 15 16 16 18 25 31 31 31 33 35 35 35 35 35 37 38 39 39 38 37 37 38 38 37 36 36 35 34 32 30 29 27 26 27 25 23 25 24 23 24 24 24 25 24 24 23 22 23 23 20 18 18 16 13 13 16 17 16 14 13 12 13 12 10 8
10 7 7 7 6 5 4 4 5 6 6 5 8 11 11 7 6 8 10 12 14 12 12 16 17 16 15 14 14 14 14 15 15 15 16 16 19 24 27 29 33 34 34 35 36 36 36 37 39 39 39 38 37 38 39 39 37 36 35 35 34 32 31 30 28 29 28 26 26 26 26 27 27 26 26 26 26 24 24 24 22 22 21 19 16 14 15 17 16 14 13 13 14 13 12 10 10
9 6 6 6 4 4 5 4 4 6 6 7 7 9 9 6 5 11 14 14 16 15 15 18 21 20 17 15 15 13 13 15 15 14 15 15 14 17 21 25 30 33 34 36 36 36 36 37 39 39 39 39 38 38 39 40 39 37 36 36 35 33 32 32 31 30 31 30 28 27 28 31 30 28 27 28 27 26 27 25 22 23 24 22 18 16 17 17 15 13 13 15 16 14 12 11 11
10 8 6 6 5 5 6 5 4 4 5 8 11 9 7 4 4 12 18 18 18 17 16 18 21 21 19 17 17 14 14 14 14 13 14 15 15 16 19 25 29 32 35 36 36 37 36 36 38 39 39 39 39 38 39 39 40 39 38 37 36 34 33 33 32 31 31 32 30 29 30 32 32 30 29 29 29 29 28 24 23 25 25 23 20 18 18 17 15 15 16 17 17 16 15 13 13
9 8 6 6 5 5 5 4 4 4 4 7 11 9 5 4 6 11 16 18 18 17 16 16 18 20 19 18 18 17 15 13 13 14 15 17 18 17 20 25 29 32 35 36 36 37 36 36 38 39 38 39 39 38 38 39 39 39 38 38 37 36 35 34 33 32 32 33 33 31 31 33 32 30 30 30 30 30 28 24 24 25 25 25 21 19 20 18 16 17 18 18 18 17 17 15 15
6 6 7 8 7 5 3 4 4 3 3 5 6 6 4 5 7 8 10 13 17 18 17 15 14 18 18 17 18 17 14 13 13 14 15 17 18 17 20 25 28 32 35 36 36 38 37 37 38 40 39 40 40 39 39 39 39 39 39 38 37 36 35 33 33 33 32 33 34 34 33 33 32 30 30 31 31 30 28 25 26 25 26 26 22 20 22 20 17 20 21 19 18 18 17 16 16
4 7 9 8 6 5 2 3 4 3 5 5 4 5 3 3 5 10 12 8 14 17 16 14 13 16 17 15 16 15 14 14 14 13 14 16 16 16 20 25 27 30 34 36 38 39 39 38 38 39 39 39 40 40 39 39 39 38 39 39 38 37 36 34 33 34 33 33 34 35 34 33 33 32 31 31 32 32 30 27 27 27 27 27 22 21 24 22 19 22 23 20 19 18 18 18 17
4 6 7 3 3 5 2 2 3 4 5 4 6 7 4 3 3 9 13 7 12 15 14 12 13 16 16 14 15 15 15 15 15 14 14 15 16 16 19 25 29 32 35 37 39 39 39 38 39 39 39 39 40 40 40 40 39 39 38 39 38 37 37 36 34 34 35 34 33 34 34 34 33 33 32 32 32 33 33 31 30 29 28 27 24 23 25 25 23 24 23 22 21 19 18 20 19
8 5 3 4 5 7 4 3 4 5 5 3 6 8 6 5 4 9 14 10 11 15 15 13 15 18 16 14 15 16 16 15 14 15 14 14 16 16 19 25 29 32 35 37 38 38 37 37 38 39 40 41 41 40 40 39 39 38 38 39 39 38 37 37 35 35 35 35 34 34 34 34 34 34 34 34 33 32 34 34 33 32 31 29 27 25 27 28 27 26 25 24 23 21 19 20 21
10 7 6 4 4 6 6 5 4 4 4 3 6 7 5 5 5 10 15 13 12 15 15 14 16 18 17 15 15 16 16 15 14 15 15 15 16 18 22 28 30 32 34 35 36 36 36 37 37 38 39 40 40 39 39 38 39 38 37 37 39 38 38 37 36 36 36 36 35 34 35 34 34 34 35 35 34 33 34 36 35 34 33 32 30 28 28 30 29 28 28 27 26 25 23 21 21
9 8 10 8 4 3 5 6 5 5 4 3 5 5 5 5 5 7 10 12 14 15 16 15 16 19 18 16 17 16 16 16 16 16 16 16 16 17 23 29 31 31 32 33 35 36 36 36 36 37 38 38 39 39 39 38 38 38 37 38 38 38 38 38 37 37 37 36 35 35 35 35 34 35 36 36 36 36 36 36 36 36 36 34 33 31 30 32 31 29 29 28 27 28 27 24 23
10 9 11 10 6 4 4 5 7 7 6 6 5 4 6 6 5 7 8 10 12 13 13 12 14 19 17 15 18 20 18 18 18 18 17 16 15 15 20 26 28 29 31 34 36 36 36 36 36 37 37 38 39 40 40 39 38 38 39 39 39 38 38 38 38 38 38 38 36 35 35 35 35 36 37 37 38 38 37 37 38 38 37 36 35 33 33 34 34 31 30 30 29 29 29 27 25
Wind_Direction
165 159 154 147 143 151 142 98 17 123 186 291 185 117 113 133 151 157 174 154 148 136 113 119 124 116 110 96 102 82 34 19 88 132 136 143 149 153 153 151 150 145 144 144 144 146 145 142 140 139 139 139 138 138 136 135 133 132 132 130 128 125 123 123 122 122 121 121 120 120 120 119 118 117 116 115 115 114 113 110 107 105 103 101 98 95 93 90 87 85 85 84 82 80 78 76 72
167 160 154 150 152 165 98 220 297 10 263 308 283 143 132 146 174 168 153 106 89 88 90 100 105 99 98 95 90 77 45 29 74 94 97 135 143 150 150 147 148 146 145 146 147 147 146 143 142 142 142 140 139 140 138 137 136 135 134 133 129 126 126 125 124 124 123 123 122 122 121 120 119 119 118 117 116 115 113 110 108 106 104 102 99 95 91 88 86 84 82 81 80 78 75 72 71
165 158 162 162 161 173 118 193 312 347 344 299 217 149 122 185 205 127 100 90 90 92 92 96 96 98 96 83 66 78 79 49 81 92 112 138 143 151 148 143 148 148 146 149 148 146 146 145 145 144 145 143 141 142 140 139 139 137 136 135 132 130 129 128 127 125 125 124 124 124 122 121 121 121 119 118 117 116 114 111 109 107 105 103 99 95 91 87 85 84 80 78 77 74 73 69 67
163 161 169 169 140 48 275 66 115 19 317 252 214 154 156 173 152 111 109 104 97 95 93 94 89 92 88 91 92 85 99 85 92 103 128 149 149 149 147 143 146 147 146 149 149 147 147 147 147 145 147 147 144 144 142 141 141 139 138 137 135 134 132 130 129 127 126 126 126 125 123 123 122 121 120 119 118 117 114 112 110 108 106 102 98 95 91 87 84 82 78 74 73 70 70 67 63
167 167 170 162 80 97 200 334 45 166 240 258 268 195 169 123 118 118 123 112 108 109 102 98 90 87 78 89 107 90 109 112 112 117 128 148 147 145 146 144 143 145 148 150 150 149 148 148 148 148 150 149 148 146 143 142 143 141 140 140 138 137 136 132 130 130 129 128 127 125 124 124 123 122 121 120 119 117 115 112 111 109 105 102 99 96 92 87 83 78 75 71 68 66 65 62 57
174 158 162 165 344 235 184 253 221 239 242 234 220 223 98 100 113 119 118 113 109 104 99 95 96 93 75 73 77 105 131 123 125 129 132 142 145 145 145 143 142 143 147 150 150 150 149 149 151 151 152 151 150 148 146 145 145 144 142 142 141 140 138 135 134 133 131 130 128 126 125 125 124 123 121 121 120 118 115 113 111 108 105 103 102 99 94 87 83 77 74 71 65 63 59 53 50
184 146 149 200 289 243 219 230 227 239 234 196 175 163 120 124 128 124 121 116 105 100 103 103 110 99 81 88 83 106 122 122 128 136 140 143 144 145 144 142 140 140 145 150 150 150 148 148 150 151 152 151 150 148 148 148 146 145 144 143 143 142 140 138 138 137 134 132 130 128 128 127 126 124 124 122 122 120 117 115 112 110 109 108 105 100 94 87 82 77 71 68 63 60 56 47 47
191 178 158 205 246 223 212 259 251 229 191 171 162 162 139 118 114 131 128 118 114 115 109 107 109 93 84 97 94 107 112 118 127 136 142 142 144 144 143 142 139 140 148 151 149 147 146 148 148 150 151 151 151 151 150 149 147 146 146 145 145 144 142 142 142 140 136 134 133 132 131 130 128 127 126 125 124 121 118 117 116 115 115 112 109 101 93 87 81 75 69 66 60 52 51 45 46
198 199 205 203 251 266 260 273 258 188 146 149 149 149 119 104 131 148 124 115 120 118 109 112 105 96 100 98 96 105 107 119 127 134 142 142 143 143 143 142 141 144 148 148 147 146 145 147 147 149 151 152 154 154 151 150 150 149 148 148 147 145 145 146 144 142 139 138 138 137 134 132 131 130 129 129 127 125 122 122 120 120 118 116 112 105 96 88 78 72 65 60 57 51 49 45 46
197 192 219 249 254 272 280 277 244 127 122 130 132 127 113 130 159 137 118 118 121 113 107 106 97 105 115 104 102 111 117 127 130 135 142 142 142 143 144 144 143 146 147 147 147 146 147 148 149 150 151 153 156 155 154 153 151 151 151 150 149 148 148 148 146 145 143 143 142 140 138 135 134 134 133 133 131 129 127 125 123 122 120 118 111 101 94 84 73 64 56 54 53 52 53 50 48
179 203 205 265 269 272 283 279 177 117 114 121 117 116 128 143 126 111 114 114 111 109 112 106 102 111 113 105 102 122 129 134 134 138 143 142 143 143 145 144 144 147 149 148 148 149 149 152 153 153 154 155 155 154 154 154 154 153 153 152 152 151 150 150 149 148 147 147 146 144 143 140 140 140 138 137 135 133 130 128 127 125 124 121 107 93 85 72 61 52 47 48 48 51 54 54 48
202 236 178 251 259 262 283 283 147 112 108 119 122 126 137 124 114 125 120 116 121 122 126 119 118 118 110 110 118 132 136 140 140 142 143 142 143 143 144 144 145 150 151 149 150 151 151 154 154 154 155 155 154 154 155 155 155 155 154 154 153 153 153 152 151 150 151 150 150 150 149 147 145 144 142 141 139 138 136 135 135 133 132 124 99 82 72 56 46 47 47 47 47 53 55 52 42
225 244 209 274 280 291 299 298 117 106 105 112 117 126 119 114 132 144 130 130 137 132 126 123 129 122 111 119 131 139 142 145 143 142 144 143 143 143 144 145 145 148 151 151 151 151 152 152 152 152 152 154 154 153 155 156 156 155 154 155 155 155 155 154 154 154 155 155 156 156 154 152 150 149 149 148 147 145 144 143 144 143 133 118 87 65 51 40 31 31 39 46 52 62 62 54 45
213 238 225 293 312 313 313 315 39 93 106 114 123 133 128 137 146 137 132 136 132 130 129 131 131 114 114 131 136 147 146 149 147 144 146 144 144 143 144 146 145 147 151 153 152 152 152 152 152 152 152 153 154 154 156 157 157 156 156 157 157 158 158 158 158 158 159 160 161 160 158 159 158 159 159 157 156 156 157 156 157 160 144 122 82 58 38 30 25 15 16 33 51 70 73 66 61
219 242 206 323 320 318 328 320 324 68 122 142 154 147 139 141 138 128 130 129 124 131 133 137 135 117 142 153 148 158 150 151 149 144 144 142 143 142 142 144 145 148 151 154 153 153 153 154 155 154 154 155 155 156 157 158 159 158 158 160 160 160 162 162 162 163 164 165 164 164 163 166 167 168 167 164 166 168 168 171 176 174 168 164 31 18 10 13 18 13 15 27 39 65 74 79 75
223 261 74 5 309 330 334 313 314 295 135 134 128 127 130 121 121 118 119 122 125 135 137 147 150 135 153 154 146 150 149 150 147 144 143 141 143 140 139 141 144 147 150 154 154 154 156 156 157 157 158 158 159 160 159 159 160 161 162 162 163 163 165 167 166 167 167 167 167 167 168 171 174 174 173 174 174 177 183 187 186 181 208 299 328 343 355 1 14 24 27 29 32 45 59 87 76
166 76 69 328 284 337 305 304 311 246 114 112 120 121 118 102 103 107 117 126 132 144 148 152 149 135 144 146 143 146 147 149 145 145 145 142 142 138 138 142 144 147 150 154 155 156 160 161 160 160 162 162 162 163 162 162 163 164 165 165 167 167 168 169 169 169 168 169 170 171 173 174 178 178 178 182 180 189 198 198 194 186 321 338 329 329 341 354 13 33 35 32 51 66 56 80 61
128 95 146 242 242 217 200 240 282 272 114 149 161 135 122 119 126 127 131 133 138 150 146 139 135 129 136 139 142 144 145 146 142 141 141 139 140 140 143 147 147 149 152 155 158 159 163 165 163 163 164 165 165 165 165 164 166 168 168 169 170 170 170 170 170 171 171 173 175 176 177 177 180 181 182 183 183 196 198 188 197 185 32 357 333 346 61 20 8 38 49 46 67 76 50 51 37
172 130 195 226 233 225 182 187 239 277 255 180 159 137 131 136 143 146 145 141 146 150 132 130 129 127 133 140 146 147 145 145 141 139 140 141 144 145 146 150 151 153 156 158 161 164 167 167 166 166 165 166 168 168 169 169 169 170 171 171 170 171 172 174 174 174 176 177 179 180 181 181 181 183 186 188 190 201 195 169 158 147 130 146 93 56 82 34 342 351 24 43 49 39 28 28 20
182 128 188 233 234 251 235 199 165 223 235 204 152 135 133 145 156 160 152 144 147 141 125 128 130 135 140 144 150 150 151 149 144 144 145 146 148 150 151 154 156 157 159 160 162 166 169 168 168 169 167 168 172 172 174 174 172 173 174 173 173 173 175 178 178 179 182 184 187 186 184 181 182 192 193 193 203 220 220 201 210 219 209 232 29 52 67 38 357 341 338 359 16 12 13 6 0
155 147 187 228 229 231 254 218 132 187 239 187 140 135 135 153 170 159 151 149 149 139 134 138 140 144 146 148 151 152 154 150 148 150 149 151 153 154 157 158 159 159 159 160 162 167 169 169 170 171 170 172 174 174 177 177 175 176 176 177 177 178 181 182 183 185 188 191 194 189 184 181 183 192 190 191 204 217 223 217 230 246 241 243 94 76 66 41 13 358 350 357 10 11 360 338 323
171 193 188 218 229 203 256 228 141 170 230 68 175 155 139 142 171 166 158 164 158 144 141 142 145 148 149 150 153 154 155 152 155 156 154 156 157 157 159 159 160 159 161 163 164 168 170 171 173 174 174 175 175 175 179 180 178 179 179 181 182 184 187 187 187 191 192 194 197 190 186 192 192 192 190 192 200 207 216 222 230 235 232 230 160 101 60 31 358 347 350 357 10 7 351 336 323
207 203 188 216 227 159 218 258 164 144 138 213 193 130 135 140 191 182 168 170 143 140 143 142 145 149 151 151 154 158 157 156 161 162 158 158 159 160 160 161 163 162 164 167 167 169 171 173 175 176 175 176 177 174 180 185 181 181 183 184 187 189 191 191 192 194 195 195 199 194 192 202 201 198 200 201 203 201 206 218 222 223 225 232 213 197 81 7 326 327 340 346 357 349 341 347 344
250 228 200 210 204 158 178 231 197 136 149 179 142 132 163 161 186 120 120 128 125 132 139 140 144 148 152 154 156 160 159 161 167 166 162 161 161 163 163 163 164 165 166 169 171 172 174 175 176 178 177 177 177 172 180 189 182 181 187 188 190 192 193 193 194 194 196 198 201 199 198 207 207 208 213 212 204 198 202 209 208 213 223 234 235 248 290 337 317 324 337 336 336 321 322 332 337
251 246 223 206 192 179 179 202 203 167 158 148 153 179 174 156 149 102 107 115 123 131 136 139 145 149 155 159 159 160 161 165 168 167 166 164 162 162 165 164 163 166 168 170 172 173 175 176 177 180 180 178 176 173 182 190 184 182 188 191 192 194 195 194 196 198 200 203 203 198 200 211 213 211 210 204 194 193 200 202 197 203 215 236 247 260 304 322 309 300 312 329 335 329 328 315 277
243 243 234 208 198 190 178 188 194 198 170 153 167 166 152 148 138 133 124 122 127 131 137 144 147 152 160 164 161 161 164 168 171 169 168 168 163 162 165 165 165 169 170 170 173 175 176 177 179 181 182 179 176 177 183 188 187 186 189 192 193 194 199 200 200 204 205 206 202 194 200 215 215 203 197 198 199 198 202 205 206 212 216 237 233 197 221 249 265 282 304 329 338 340 341 324 266
267 263 258 242 222 195 177 180 188 208 179 157 164 147 145 145 140 149 124 125 130 133 141 148 150 156 163 168 163 163 168 171 174 170 168 171 167 163 165 166 168 171 170 171 174 176 177 179 181 182 184 182 178 181 184 186 191 192 188 191 192 194 201 203 202 206 208 209 201 190 196 209 206 199 197 199 202 201 203 208 212 219 222 228 221 206 218 235 258 285 309 330 345 34 73 101 88
291 295 302 291 278 235 188 182 191 206 172 158 155 141 143 141 160 159 128 131 136 137 145 149 153 158 164 170 162 165 175 172 173 172 170 175 172 166 167 167 170 172 171 173 176 177 178 180 182 183 185 183 181 183 185 187 191 194 190 190 193 194 198 202 205 206 207 208 201 191 194 201 196 193 197 196 199 203 207 214 214 220 227 227 225 220 231 240 265 291 309 334 39 104 84 28 350
295 298 309 298 294 279 200 175 213 247 163 161 146 137 154 154 170 149 134 138 138 139 146 152 157 158 166 169 161 169 180 173 171 174 174 175 175 169 168 169 170 172 172 175 176 177 179 180 181 184 186 184 183 184 187 189 190 194 193 191 195 193 194 201 205 204 205 205 200 197 197 201 202 199 198 196 200 207 212 220 221 225 233 236 243 237 251 263 287 309 307 288 200 318 350 346 352
279 274 270 273 289 284 225 167 202 238 175 162 141 133 171 169 164 146 142 142 139 142 149 154 158 160 169 165 161 174 184 176 171 175 175 177 180 171 168 170 170 171 173 175 175 176 179 179 181 184 185 185 185 186 189 191 190 193 193 191 195 193 193 199 201 201 202 201 200 201 201 202 206 208 208 203 201 206 213 224 226 230 236 239 246 248 261 275 305 311 257 194 318 351 353 356 344
267 271 260 251 282 283 270 219 189 201 191 167 135 121 174 177 159 144 148 146 141 146 150 156 161 161 168 162 162 174 185 183 173 177 176 177 183 175 170 172 172 173 171 172 175 177 179 180 181 183 186 187 186 188 190 190 189 190 191 190 192 193 194 197 198 199 200 200 201 202 205 206 207 213 215 212 209 208 212 224 233 234 234 239 249 256 262 272 295 234 165 135 18 3 11 17 11
267 270 273 244 231 255 272 249 187 189 182 155 131 124 167 171 159 145 153 152 143 148 152 158 163 163 168 163 163 173 184 183 176 181 178 176 182 179 174 174 173 174 173 172 175 178 179 181 181 182 186 187 186 188 190 191 189 189 191 190 192 194 193 194 196 200 200 200 200 202 207 207 210 218 220 217 214 207 210 223 234 240 240 240 245 259 258 210 167 158 144 113 14 45 76 41 28
263 242 245 237 211 224 257 233 176 170 137 140 128 129 156 157 169 152 156 160 148 150 155 160 163 163 168 164 165 172 179 183 179 185 181 175 180 181 175 174 175 176 176 176 176 178 180 181 181 182 185 187 186 186 188 190 189 190 192 190 193 195 192 195 196 197 201 202 201 204 208 209 213 220 221 218 213 202 205 219 229 238 238 232 242 252 209 160 149 144 144 157 154 182 96 41 20
261 242 239 248 235 225 228 185 172 155 135 154 129 126 160 162 176 162 159 165 155 154 158 163 163 162 168 165 168 173 177 185 186 188 183 176 179 183 177 175 177 176 178 181 180 180 181 182 182 183 185 188 188 186 187 189 189 190 191 190 195 195 194 197 198 197 202 206 208 209 210 212 214 219 221 218 214 201 200 218 226 228 231 232 231 189 163 152 147 146 150 156 158 190 168 48 26
240 241 232 240 244 249 237 193 186 160 144 168 145 144 179 170 179 172 161 166 162 161 162 164 164 162 167 166 169 176 177 186 191 188 185 177 178 183 182 177 175 176 179 181 182 182 183 183 182 183 186 188 189 188 188 188 189 190 190 191 194 196 195 197 199 200 203 207 209 210 212 216 217 217 220 217 212 200 199 218 224 227 233 219 183 159 152 152 154 153 146 142 139 141 145 95 50
235 242 232 225 227 244 245 210 179 163 148 168 160 167 188 172 182 175 159 168 168 164 164 165 164 161 168 169 169 176 178 185 191 189 185 179 178 181 182 179 175 176 178 179 182 185 186 184 182 182 185 187 187 188 188 186 185 188 191 193 191 193 195 196 201 203 204 207 210 211 211 216 220 218 217 215 209 199 200 215 223 230 220 182 161 150 147 152 156 153 145 141 152 135 129 146 142
239 249 247 238 227 232 242 207 165 160 154 174 170 176 187 165 172 172 160 169 167 163 167 168 165 163 171 173 170 176 181 183 186 189 187 179 178 180 181 181 177 174 176 178 180 184 187 184 181 181 183 185 185 186 188 187 186 187 192 195 192 193 195 197 202 203 204 211 212 213 212 216 220 216 215 210 203 200 201 212 217 209 183 165 149 142 145 155 155 146 147 149 158 149 136 154 209
237 249 258 255 245 246 246 198 162 165 167 177 170 170 185 166 164 168 164 170 170 167 171 172 169 167 172 175 173 176 180 177 178 188 191 181 177 179 181 182 182 176 175 178 179 181 184 183 183 181 181 183 185 186 188 189 191 191 192 196 195 196 197 197 202 202 204 211 211 210 212 214 214 213 212 205 203 204 204 211 209 186 168 159 149 157 168 173 164 153 162 169 174 193 187 179 298
237 244 254 261 262 270 264 214 164 168 171 173 171 168 184 173 160 163 167 174 174 171 174 174 172 169 171 177 175 173 175 176 175 183 192 185 177 178 180 181 185 183 179 180 180 181 182 183 184 183 182 184 185 187 189 189 192 194 194 195 195 196 199 199 202 202 203 210 210 209 212 212 211 211 207 202 206 210 207 205 194 177 168 165 163 169 173 167 165 166 172 180 178 177 191 201 253
237 242 243 252 256 267 272 236 179 177 171 163 167 167 183 178 162 166 172 173 169 176 179 176 174 174 174 178 176 172 173 176 178 180 189 190 180 178 179 180 184 184 180 181 181 182 184 185 187 185 184 185 185 187 190 190 191 194 196 194 192 195 200 200 201 203 203 208 210 209 211 209 208 207 203 201 207 208 201 190 179 173 175 178 174 168 169 168 166 165 165 175 173 149 147 204 218
227 235 241 247 247 251 259 252 223 184 168 161 156 162 200 183 164 169 172 169 172 183 192 187 178 174 174 177 178 175 174 176 179 180 185 190 185 181 180 181 183 182 180 181 182 183 185 186 188 188 186 186 186 187 189 190 188 190 192 191 191 195 197 195 197 201 201 204 206 205 206 206 203 203 204 204 202 197 189 178 172 172 178 183 180 175 176 175 171 172 172 176 180 162 148 181 195
225 226 234 248 252 251 254 255 250 176 170 173 150 156 237 194 165 169 169 171 179 183 197 207 187 172 173 176 180 180 178 178 178 180 184 188 188 184 181 181 182 183 183 183 184 184 186 187 187 189 189 188 187 188 188 189 188 188 188 186 190 195 192 188 194 199 198 200 203 201 201 202 201 202 206 205 195 187 181 175 177 180 181 183 180 179 179 176 178 180 175 169 178 175 155 164 178
232 217 220 237 252 258 260 260 254 172 176 190 163 153 228 206 176 176 176 180 184 181 193 208 197 176 176 177 181 183 180 179 179 181 184 187 188 185 183 183 184 186 185 183 183 184 185 187 187 189 191 191 189 188 190 190 189 191 191 188 190 194 192 188 194 198 197 199 200 198 196 197 202 203 202 199 191 185 180 178 184 186 185 182 178 182 185 185 184 179 175 172 171 171 157 149 156
235 222 210 220 236 251 261 264 259 215 172 187 187 167 158 205 200 184 179 182 189 186 191 203 199 181 180 179 180 182 181 180 180 182 184 187 189 187 186 187 187 188 185 183 183 184 186 188 188 190 192 194 192 190 191 192 191 191 193 193 192 195 196 193 193 195 199 201 196 192 192 194 200 202 197 189 185 185 180 181 187 189 187 183 181 185 187 187 183 175 178 184 182 176 166 150 138
231 233 224 218 223 235 249 260 264 244 209 195 194 173 155 219 217 187 178 181 191 192 193 200 193 179 181 183 181 180 182 182 181 183 184 187 189 189 188 187 188 188 186 185 185 186 187 188 189 191 192 194 195 193 192 193 194 193 193 194 194 196 198 197 196 195 198 198 193 190 192 194 194 194 191 184 184 187 183 183 187 188 188 185 183 185 184 186 187 181 181 190 194 187 179 169 145
227 234 243 242 232 229 233 243 258 255 242 226 196 179 176 227 208 184 182 186 191 191 193 198 193 183 184 188 185 181 181 184 184 185 185 185 189 190 188 185 186 187 187 187 187 186 187 187 189 191 193 195 195 196 194 193 194 194 193 194 195 196 197 197 197 197 197 192 189 191 195 197 192 187 186 184 185 190 188 187 188 187 188 187 184 185 184 185 188 187 186 192 198 193 188 181 159
223 227 242 255 252 242 234 229 235 252 251 226 199 188 187 215 208 185 184 189 187 183 187 191 191 190 190 189 189 184 181 182 184 188 188 185 186 187 185 183 185 186 186 186 186 186 187 187 189 191 193 195 195 196 196 195 195 195 194 194 195 196 195 195 195 197 198 192 189 193 197 198 190 184 188 187 187 193 191 190 192 189 186 186 183 181 184 186 188 193 199 201 198 194 195 186 169
223 216 223 242 258 267 267 246 214 231 243 222 212 208 202 214 217 194 187 186 184 181 182 185 187 190 191 189 188 184 181 182 184 186 188 184 181 182 183 183 184 185 185 185 185 186 187 188 189 190 193 194 194 196 197 197 197 196 196 196 195 196 195 194 194 195 197 194 194 197 195 191 186 184 188 187 188 192 189 191 194 189 186 188 187 184 188 192 195 201 206 199 190 189 196 192 182
221 217 208 212 230 245 246 249 216 223 239 219 218 229 222 227 208 189 190 187 185 187 185 186 189 189 190 191 191 186 180 182 184 182 183 182 178 180 183 182 182 184 185 185 185 186 187 189 189 190 192 194 194 195 196 197 198 197 197 197 197 197 195 194 194 194 194 194 195 194 188 184 183 183 185 186 187 189 189 193 195 189 189 194 192 189 191 197 204 206 201 192 188 191 196 194 191
210 212 201 189 192 213 227 243 236 223 237 222 219 226 225 244 218 186 192 196 191 189 188 188 190 191 192 192 192 189 184 184 183 180 180 182 182 182 184 182 182 185 186 184 185 186 187 188 189 190 192 193 194 195 196 197 198 199 198 198 198 197 196 195 194 194 194 195 196 193 186 183 184 184 185 187 187 189 192 195 194 191 193 197 196 192 191 200 210 210 201 194 193 196 196 198 202
208 206 200 198 191 205 214 218 228 226 239 231 223 219 192 207 216 191 195 201 194 189 190 191 188 188 191 190 189 188 186 184 181 180 181 183 185 184 183 183 183 184 185 184 185 186 187 188 189 190 191 192 194 195 196 198 199 200 199 199 198 197 197 196 196 196 196 197 197 194 189 186 187 187 188 189 189 191 194 194 194 195 197 199 201 197 193 199 209 207 202 199 199 200 199 202 207
210 197 207 215 195 193 210 213 224 224 238 246 230 218 181 189 220 225 220 203 190 189 191 192 187 182 182 182 183 186 185 182 178 178 182 185 187 185 183 183 183 183 184 185 186 186 187 188 189 190 191 192 194 195 197 198 199 200 200 200 199 198 197 196 197 197 198 199 198 196 194 192 192 191 190 191 192 193 193 193 195 197 198 199 201 198 195 198 203 200 199 200 199 200 201 205 208
190 201 217 216 190 192 213 236 253 239 230 238 231 234 217 191 230 252 252 207 178 188 189 187 180 170 172 175 178 182 182 181 179 178 181 184 186 187 185 183 181 182 184 186 188 188 187 187 187 189 190 192 194 196 197 199 199 200 200 200 200 198 197 196 197 198 199 201 200 198 197 197 197 196 193 193 194 195 194 193 194 196 196 198 200 198 194 195 196 193 195 197 196 200 206 209 210
186 204 207 193 224 233 205 215 243 236 236 234 231 239 224 192 215 238 243 211 167 182 184 176 168 160 165 174 177 179 179 180 183 181 181 183 186 188 186 186 184 184 186 188 188 188 188 188 188 188 189 191 194 196 198 199 199 200 200 200 200 198 197 197 197 198 200 200 200 198 198 198 198 198 196 194 194 196 196 194 194 195 196 199 204 202 196 196 197 194 195 197 198 203 209 212 214
212 231 189 160 222 227 207 217 211 210 234 242 241 244 218 202 201 206 223 213 167 176 181 173 168 164 167 173 178 180 178 181 186 187 188 187 188 188 186 187 187 186 188 188 188 187 189 190 190 190 191 193 195 196 198 200 200 200 200 200 200 198 197 197 197 198 200 201 200 199 198 198 197 198 197 195 195 197 196 195 196 198 200 203 206 205 200 199 203 203 202 202 202 203 207 211 215
211 242 243 223 220 197 193 215 206 188 218 228 236 247 235 222 204 191 207 208 183 180 182 179 173 171 172 172 177 180 178 183 189 190 193 193 192 190 187 187 187 187 186 186 185 187 189 190 190 191 192 194 195 197 198 199 200 200 201 200 200 198 197 197 198 199 200 202 202 200 199 198 197 198 198 197 197 198 197 196 198 201 203 204 205 205 202 202 205 208 208 208 206 205 207 212 214
195 215 230 232 233 203 189 201 207 190 191 222 233 241 246 245 224 203 205 206 202 192 182 181 178 176 178 176 177 181 182 186 190 191 194 194 194 192 189 189 187 183 182 183 185 187 189 190 191 191 192 192 194 197 198 199 200 200 200 200 200 198 197 197 199 201 202 203 202 201 201 199 197 198 198 198 198 198 199 199 200 201 203 203 203 204 204 204 205 208 209 210 209 209 210 213 214
189 199 221 226 218 219 214 213 215 200 195 216 220 233 254 253 238 234 228 211 205 198 186 181 178 178 181 181 180 181 184 188 190 192 192 189 189 189 188 188 184 178 178 182 185 187 188 190 192 192 192 193 195 197 198 199 199 200 201 201 200 199 198 198 199 201 204 205 204 203 201 200 199 199 200 200 200 199 200 201 201 201 202 203 204 205 204 204 205 207 208 209 210 210 211 212 213